Regional Weather Roundup
Issued by NWS Sterling, VA

Home | Current Version | Previous Version | Graphics & Text | Print | Product List | Glossary On
Versions: 1 2 3 4 5 6 7 8 9 10 11 12 13 14 15 16 17 18 19 20 21 22 23 24 25 26 27
000
ASUS41 KLWX 220511
RWRLWX

REGIONAL WEATHER ROUNDUP
NATIONAL WEATHER SERVICE BALTIMORE MD/WASHINGTON DC
100 AM EDT SAT JUL 22 2017

Note: "FAIR" indicates few or no clouds below 12,000 feet
with no significant weather and/or obstructions to visibility.
 TC=TEMPERATURE CELSIUS

 * =Non NWS site. Station does not report precipitation (e.g. rain,
    snow, etc.), thunder, or fog.

DCZ001-MDZ009-015-VAZ040>042-051-053>054-220600-
WASHINGTON METRO

CITY           SKY/WX    TMP DP  RH WIND       PRES   REMARKS
WASHINGTON NAT CLOUDY    84  75  74 NW9       29.90S HX  92
DULLES         MOCLDY    79  70  74 NW6       29.91F
ANDREWS AFB    PTCLDY    80  74  84 CALM      29.89F
FT BELVOIR     MOCLDY    83  71  66 NW5       29.89F
QUANTICO       PTCLDY    80  74  81 NW9       29.90S
COLLEGE PARK*  CLOUDY    80  73  79 CALM      29.89S
LEESBURG*      PTCLDY    79  73  83 CALM      29.93S
MANASSAS*      CLOUDY    75  71  87 CALM      29.91F
GAITHERSBURG*  CLOUDY    77  75  93 CALM      29.93F

$$

MDZ006>007-011-014-220600-
BALTIMORE METRO

CITY           SKY/WX    TMP DP  RH WIND       PRES   REMARKS
BWI AIRPORT    CLOUDY    79  76  90 CALM      29.89S
MD SCIENCE CTR   N/A     87  73  62 MISG      29.89S HX  94
MARTIN STATE   CLOUDY    82  77  83 CALM      29.91S HX  91
ANNAPOLIS      PTCLDY    82  80  94 CALM      29.88S HX  94
FORT MEADE*    CLOUDY    75  73  94 CALM      29.92S

$$

MDZ012-015-019>023-220600-
MARYLAND EASTERN SHORE

CITY           SKY/WX    TMP DP  RH WIND       PRES   REMARKS
OCEAN CITY     CLOUDY    80  75  84 S5        29.90F
SALISBURY      NOT AVBL
BAY BRIDGE AP* CLOUDY    84  79  84 CALM      29.89S HX  96
CAMBRIDGE*     CLEAR     82  79  89 SE5       29.88F HX  93
EASTON*        CLOUDY    85  75  72 CALM      29.93S HX  94

$$

MDZ017>025-220600-
SOUTHERN MARYLAND

CITY           SKY/WX    TMP DP  RH WIND       PRES   REMARKS
PATUXENT RIVER PTCLDY    82  78  88 SW6       29.88S HX  91
ST INIGOES     CLOUDY    84  78  82 SW7       29.88S HX  95
LEONARDTOWN*   PTCLDY   N/A N/A N/A SW7       29.91S

$$

MDZ003>005-220600-
NORTH CENTRAL MARYLAND

CITY           SKY/WX    TMP DP  RH WIND       PRES   REMARKS
FREDERICK*     LGT RAIN  79  77  94 SE5       29.94S
HAGERSTOWN APT PTCLDY    77  73  87 SE3       29.94S
WESTMINSTER*   CLOUDY    81  75  83 CALM      29.93F

$$

MDZ501>502-220600-
WESTERN MARYLAND

CITY           SKY/WX    TMP DP  RH WIND       PRES   REMARKS
OAKLAND*       CLOUDY    64  64 100 SW3       30.08S
CUMBERLAND*    MOCLDY    73  73 100 CALM      30.02R

$$

VAZ025>031-220600-
SHENANDOAH VALLEY

CITY           SKY/WX    TMP DP  RH WIND       PRES   REMARKS
WINCHESTER*    CLEAR     70  70 100 CALM      29.95F
FRONT ROYAL*   CLEAR     73  72  94 S3        29.95S
LURAY*         CLEAR     72  72 100 CALM      29.98S
NEW MARKET*    CLEAR     71  70  97 CALM      29.98S
STAUNTON*      CLEAR     71  69  94 CALM      30.02S
WAYNESBORO*    CLEAR     75  69  80 W6        30.01F

$$

WVZ021-048>050-054>055-220600-
EASTERN WEST VIRGINIA PANHANDLE

CITY           SKY/WX    TMP DP  RH WIND       PRES   REMARKS
MARTINSBURG    CLEAR     73  71  93 CALM      29.93F
PETERSBURG*    CLEAR     70  69  97 CALM      30.01R

$$

VAZ036>039-050-220600-
CENTRAL FOOTHILLS

CITY           SKY/WX    TMP DP  RH WIND       PRES   REMARKS
CHARLOTTESVILL CLEAR     77  70  79 SW3       29.95R
CULPEPER*      CLOUDY    73  72  97 CALM      29.93S
ORANGE*        CLOUDY    72  70  94 CALM      29.93S
GORDONSVILLE*  CLEAR     75  70  85 CALM      29.93S
WARRENTON*     CLOUDY    73  69  87 CALM      29.91F

$$

VAZ055>057-220600-
NORTH AND CENTRAL PIEDMONT

CITY           SKY/WX    TMP DP  RH WIND       PRES   REMARKS
FREDERICKSBRG* CLEAR     79  72  79 CALM      29.91S
STAFFORD*      CLOUDY    74  73  93 CALM      29.95S

$$

NCZ024-NYZ072-PAZ021-071-VAZ022-071-220600-
OTHER REGIONAL OBSERVATIONS

CITY           SKY/WX    TMP DP  RH WIND       PRES   REMARKS
NEW YORK CITY  CLOUDY    84  69  60 VRB3      29.89F
PHILADELPHIA   CLOUDY    82  73  74 CALM      29.89F
PITTSBURGH     CLOUDY    76  73  91 SW6       30.00S
ROANOKE        CLEAR     78  72  81 NE3       30.02F
RICHMOND       PTCLDY    82  71  69 SW7       29.92S
RALEIGH        CLOUDY    79  73  82 SW6       29.99S

$$

ANZ530>537-220600-
MARINE OBSERVATIONS

STATION/POSITION TIME  TEMP    WIND        PRES
                       AIR SEA DIR/SP/G
                 (UTC) (F)     (DEG/KT/KT) (MB)
THOMAS PT LIGHT  0500   85 84  270/  2/  2   N/A
BALT KEY BRIDGE  0442   83     310/  4/  5 1011.9S
COVE POINT       0442   84     200/  9/ 12 1012.5F
LEWISETTA        0442   83 87  230/ 10/ 12 1012.0S
SOLOMONS ISLAND  0442   84 85  220/  7/  8   N/A
PINEY POINT      0442          270/  9/ 11   N/A

$$





USA.gov is the U.S. government's official web portal to all federal, state and local government web resources and services.